Other Public Products
Issued by NWS Charleston, SC

Current Version | Previous Version | Graphics & Text | Print | Product List | Glossary On
Versions: 1 2 3 4 5 6 7 8 9 10 11 12 13 14 15 16 17 18 19 20 21 22 23 24 25 26 27 28 29 30 31 32 33 34 35 36 37 38 39 40 41 42 43 44 45 46 47 48 49 50
938
FPUS82 KCHS 250512
OPUCHS

TEST...KCHS/KSAV Gateway Observations...TEST
National Weather Service Charleston SC
100 AM EDT TUE APR 25 2017

NOTE: "fair" indicates few or no clouds below 12,000 feet with no
significant weather and/or obstructions to visibility.

SCZ050-WAZ558-NCZ071-TXZ119-213-PAZ071-DCZ001-FLZ074-172-MI076-
NYZ176-178-MAZ016-IL014-TNZ027-NJZ106-GAZ044-MD014-250600-

...Gateway Observations for Charleston International...

CITY           SKY/WX    TMP DP  RH WIND       PRES   REMARKS
Chas Airport   MOCLDY    60  56  86 NW8       29.63S
Seattle        MOCLDY    50  46  86 S8        29.90R
Charlotte      CLOUDY    54  51  90 N7        29.70F
Dallas DFW     MOCLDY    69  51  52 S16       29.62F
Dallas Love    PTCLDY    68  51  54 S17       29.65F
Philladelphia  CLOUDY    52  46  80 NE13      30.04F
Wash National  LGT RAIN  53  51  93 NE13      29.97F
Baltimore      CLOUDY    52  49  89 NE9       29.98F
Miami          CLEAR     71  62  73 W8        29.82S
Detroit        MOCLDY    52  42  69 E7        29.90F
Newark         CLOUDY    54  42  64 NE9       30.11F
Laguardia      CLOUDY    51  46  83 NE13      30.12F
J F K          LGT RAIN  53  50  89 E12       30.12F
Boston Logan   CLOUDY    50  44  80 E7        30.22R
Ft. Lauderdale CLEAR     70  61  73 W9        29.80S
Chicago O`Hare PTCLDY    54  37  52 SE9       29.75F
Chicago Midway CLOUDY    61  38  42 SE10      29.76F
Houston Bush   PTCLDY    67  54  63 S6        29.77F
Houston Hobby  PTCLDY    63  55  75 S6        29.77F
Nashville      CLEAR     56  54  93 W3        29.78R
Atlanta        MOCLDY    60  57  89 S3        29.74S

$$

GAZ044-118-TXZ119-213-NCZ071-DCZ001-MDZ014-506-PAZ021-071-NJZ106-
NYZ176-178-MAZ106-OHZ011-021-055-MIZ076-KYZ091-ILZ014-INZ047-
MNZ060-ONZ431-250600-

...Gateway Observations for Savannah International...

CITY           SKY/WX    TMP DP  RH WIND       PRES   REMARKS
Savannah Arpt  CLOUDY    62  55  77 NW10      29.68F
Atlanta        MOCLDY    60  57  89 S3        29.74S
Charlotte      CLOUDY    54  51  90 N7        29.70F
Dallas DFW     MOCLDY    69  51  52 S16       29.62F
Houston Bush   PTCLDY    67  54  63 S6        29.77F
Wash National  LGT RAIN  53  51  93 NE13      29.97F
Wash Dulles    LGT RAIN  51  48  89 NE7       29.96F
Baltimore      CLOUDY    52  49  89 NE9       29.98F
Philadelphia   CLOUDY    52  46  80 NE13      30.04F
Newark         CLOUDY    54  42  64 NE9       30.11F
Laguardia      CLOUDY    51  46  83 NE13      30.12F
J F K          LGT RAIN  53  50  89 E12       30.12F
Boston         CLOUDY    50  44  80 E7        30.22R
Pittsburg      CLOUDY    55  44  66 E15G22    29.95F
Akron          CLOUDY    56  42  59 SE14G23   29.91F
Cleveland      CLOUDY    60  42  51 SE14      29.92F
Cincinnati     CLOUDY    59  53  80 E12       29.81S
Columbus       MOCLDY    53  48  83 E8        29.84F
Detroit        MOCLDY    52  42  69 E7        29.90F
Chicago O`Hare PTCLDY    54  37  52 SE9       29.75F
Minneapolis    LGT RAIN  61  42  49 S7G18     29.57R
Indianapolis   CLEAR     60  51  72 SE9       29.77F
Toronto Canada PTCLDY    46  32  57 E13G21    30.06F

$$




USA.gov is the U.S. government's official web portal to all federal, state and local government web resources and services.